sat.trackr.live / text

‹ back to catalog

SEEDS II (CO-66)

NORAD 32791 · 2008-021J

PAYLOAD ACTIVE UNKNOWN

§ Identity

Operator
Country
JPN
Launch date
2008-04-28
Launch site
SRILR
Launch vehicle
Mass (kg)
RCS (m²)
0.05

Purposes: comms, tech_demo

External: N2YO · Heavens-Above · Gunter

§ Orbital elements

Epoch: 2026-05-24T22:52:41.512800Z

Period
94.00 min
Inclination
97.7523°
Eccentricity
0.0004267
Mean motion
15.31833759 rev/d
Perigee alt
467.4 km
Apogee alt
473.3 km
Semi-major
6,848.5 km
B*
5.4710e-4
RAAN
141.7583°
Arg perigee
60.0915°
Mean anomaly
300.0749°
Rev number
98,373

§ Raw data

SEEDS II (CO-66)1 32791U 08021J   26144.95325825  .00016756  00000+0  54710-3 0  99932 32791  97.7523 141.7583 0004267  60.0915 300.0749 15.31833759983734

JSON: /api/v1/satellites/32791 · /tle

For live sub-satellite position, see the globe view (requires WebGL).

§ Visibility from observer

Set your observer location to see the next 7 days of passes ≥ 10°. The values pass through the URL so the page stays shareable.

No JS? Fill the form by hand. The geolocation button needs JavaScript.

§ Radio — SatNOGS DB

ModeDescriptionDownlinkUplink
CW CW 437.485 MHz
FMN Mode U Digi 437.485 MHz
SSTV Mode U SSTV 437.485 MHz
AFSK Mode U TLM 437.485 MHz
CW PE0SAT - CW Beacon 437.486 MHz

5 transmitters · refreshed weekly from db.satnogs.org